QPF
0.00 0.00 0.00 0.00 0.00 0.00 0.00 0.00 0.00 0.00 0.00 0.00 0.00 0.00 0.00 0.00 0.00 0.00 0.00 0.01 0.00 0.00 0.01 0.01 0.01 0.00 0.00 0.01 0.01 0.01 0.02 0.02 0.02 0.02 0.02 0.02 0.02 0.02 0.02 0.02 0.02 0.02 0.03 0.04
0.00 0.00 0.00 0.00 0.00 0.00 0.00 0.00 0.00 0.00 0.00 0.00 0.00 0.00 0.00 0.00 0.00 0.00 0.00 0.01 0.00 0.00 0.01 0.01 0.01 0.01 0.00 0.01 0.01 0.01 0.01 0.02 0.02 0.02 0.02 0.02 0.02 0.01 0.02 0.02 0.02 0.03 0.04 0.04
0.00 0.00 0.00 0.00 0.00 0.00 0.00 0.00 0.00 0.00 0.00 0.00 0.00 0.00 0.00 0.00 0.00 0.00 0.00 0.01 0.00 0.00 0.01 0.01 0.02 0.02 0.00 0.00 0.00 0.01 0.01 0.01 0.02 0.02 0.02 0.03 0.03 0.02 0.02 0.03 0.03 0.04 0.04 0.03
0.00 0.00 0.00 0.00 0.00 0.00 0.00 0.00 0.00 0.00 0.00 0.00 0.00 0.00 0.00 0.00 0.00 0.00 0.00 0.01 0.01 0.01 0.01 0.01 0.01 0.01 0.01 0.00 0.00 0.01 0.01 0.01 0.02 0.03 0.03 0.04 0.04 0.04 0.03 0.04 0.05 0.04 0.05 0.04
0.00 0.00 0.00 0.00 0.00 0.00 0.00 0.00 0.00 0.00 0.00 0.00 0.00 0.00 0.00 0.00 0.00 0.00 0.00 0.00 0.01 0.01 0.01 0.01 0.02 0.01 0.01 0.01 0.01 0.01 0.01 0.02 0.03 0.03 0.03 0.03 0.04 0.06 0.06 0.06 0.06 0.04 0.04 0.03
0.00 0.00 0.00 0.00 0.00 0.00 0.00 0.00 0.00 0.00 0.00 0.00 0.00 0.00 0.00 0.00 0.00 0.00 0.00 0.01 0.01 0.01 0.01 0.01 0.01 0.01 0.01 0.01 0.02 0.02 0.02 0.02 0.03 0.03 0.03 0.04 0.05 0.05 0.05 0.05 0.04 0.04 0.03 0.02
0.00 0.00 0.00 0.00 0.00 0.00 0.00 0.00 0.00 0.00 0.00 0.00 0.00 0.00 0.00 0.00 0.00 0.00 0.01 0.01 0.01 0.01 0.01 0.01 0.01 0.01 0.02 0.03 0.03 0.04 0.04 0.04 0.05 0.05 0.05 0.05 0.05 0.05 0.05 0.04 0.03 0.03 0.02 0.01
0.00 0.00 0.00 0.00 0.00 0.00 0.00 0.00 0.00 0.00 0.00 0.00 0.00 0.00 0.00 0.00 0.01 0.01 0.01 0.02 0.01 0.02 0.02 0.02 0.02 0.02 0.04 0.04 0.05 0.05 0.06 0.06 0.06 0.05 0.05 0.04 0.04 0.04 0.04 0.03 0.03 0.03 0.03 0.02
0.00 0.00 0.00 0.00 0.00 0.00 0.00 0.00 0.00 0.00 0.00 0.00 0.00 0.00 0.01 0.00 0.01 0.01 0.01 0.01 0.01 0.01 0.02 0.02 0.03 0.04 0.05 0.06 0.06 0.05 0.05 0.04 0.04 0.03 0.04 0.04 0.04 0.03 0.03 0.02 0.02 0.03 0.03 0.03
0.00 0.00 0.00 0.00 0.00 0.00 0.00 0.00 0.00 0.00 0.00 0.00 0.00 0.01 0.00 0.00 0.01 0.01 0.01 0.01 0.01 0.01 0.02 0.03 0.05 0.06 0.07 0.06 0.06 0.05 0.04 0.04 0.04 0.04 0.04 0.04 0.03 0.03 0.02 0.02 0.02 0.02 0.03 0.05
0.01 0.00 0.00 0.01 0.00 0.00 0.00 0.00 0.00 0.00 0.00 0.00 0.00 0.00 0.00 0.01 0.01 0.01 0.01 0.01 0.02 0.02 0.02 0.03 0.04 0.05 0.06 0.06 0.06 0.06 0.05 0.05 0.04 0.04 0.04 0.03 0.03 0.03 0.03 0.04 0.04 0.04 0.05 0.06
0.01 0.00 0.00 0.01 0.01 0.00 0.00 0.00 0.00 0.00 0.00 0.00 0.00 0.00 0.00 0.01 0.01 0.01 0.01 0.01 0.02 0.03 0.03 0.04 0.04 0.04 0.04 0.04 0.04 0.05 0.05 0.06 0.05 0.04 0.03 0.04 0.03 0.03 0.05 0.05 0.06 0.09 0.09 0.08
0.01 0.01 0.00 0.00 0.01 0.00 0.00 0.00 0.00 0.00 0.00 0.00 0.00 0.00 0.01 0.01 0.01 0.01 0.01 0.01 0.02 0.02 0.03 0.04 0.05 0.03 0.02 0.03 0.04 0.04 0.05 0.04 0.05 0.05 0.05 0.04 0.03 0.03 0.03 0.04 0.05 0.06 0.06 0.05
0.01 0.01 0.01 0.00 0.01 0.01 0.00 0.00 0.00 0.00 0.00 0.00 0.01 0.01 0.01 0.01 0.01 0.01 0.01 0.02 0.02 0.02 0.03 0.03 0.03 0.03 0.03 0.03 0.03 0.04 0.04 0.04 0.04 0.07 0.07 0.05 0.04 0.04 0.04 0.04 0.05 0.05 0.04 0.04
0.01 0.01 0.01 0.01 0.02 0.01 0.01 0.01 0.01 0.01 0.00 0.00 0.00 0.00 0.01 0.01 0.02 0.02 0.02 0.02 0.02 0.03 0.03 0.04 0.04 0.02 0.02 0.02 0.03 0.04 0.04 0.04 0.04 0.04 0.05 0.05 0.06 0.06 0.07 0.06 0.05 0.05 0.04 0.03
0.01 0.01 0.02 0.02 0.03 0.02 0.01 0.00 0.01 0.01 0.00 0.00 0.00 0.01 0.01 0.02 0.02 0.02 0.02 0.02 0.02 0.02 0.03 0.04 0.05 0.04 0.03 0.02 0.02 0.04 0.04 0.04 0.04 0.04 0.04 0.04 0.04 0.05 0.06 0.06 0.05 0.05 0.05 0.04
0.03 0.03 0.03 0.03 0.03 0.01 0.01 0.00 0.01 0.01 0.01 0.01 0.01 0.02 0.02 0.02 0.02 0.02 0.03 0.02 0.02 0.02 0.02 0.03 0.04 0.04 0.03 0.03 0.02 0.02 0.03 0.03 0.03 0.03 0.04 0.04 0.04 0.04 0.05 0.05 0.05 0.05 0.05 0.05
0.03 0.03 0.03 0.02 0.02 0.01 0.01 0.01 0.01 0.02 0.02 0.02 0.02 0.02 0.02 0.02 0.02 0.01 0.01 0.01 0.01 0.01 0.02 0.02 0.03 0.03 0.03 0.02 0.02 0.02 0.02 0.03 0.03 0.03 0.04 0.04 0.04 0.04 0.04 0.04 0.04 0.03 0.04 0.05
0.03 0.03 0.02 0.02 0.02 0.03 0.02 0.02 0.02 0.03 0.03 0.02 0.02 0.02 0.02 0.02 0.02 0.01 0.01 0.01 0.01 0.01 0.01 0.02 0.04 0.04 0.04 0.03 0.03 0.03 0.03 0.04 0.03 0.03 0.03 0.04 0.04 0.04 0.04 0.05 0.05 0.04 0.04 0.04
0.03 0.02 0.02 0.02 0.03 0.03 0.03 0.02 0.03 0.04 0.03 0.02 0.01 0.01 0.02 0.02 0.02 0.01 0.01 0.01 0.01 0.01 0.01 0.01 0.02 0.03 0.03 0.03 0.04 0.03 0.03 0.04 0.03 0.03 0.03 0.03 0.03 0.04 0.05 0.05 0.06 0.06 0.06 0.06
0.03 0.02 0.02 0.03 0.03 0.03 0.03 0.02 0.03 0.04 0.03 0.02 0.01 0.01 0.01 0.01 0.01 0.01 0.01 0.01 0.01 0.00 0.00 0.00 0.01 0.02 0.02 0.03 0.05 0.05 0.04 0.05 0.05 0.04 0.03 0.04 0.05 0.06 0.06 0.06 0.06 0.07 0.07 0.07
0.04 0.02 0.02 0.02 0.02 0.03 0.03 0.02 0.02 0.03 0.02 0.01 0.01 0.01 0.01 0.02 0.01 0.01 0.01 0.01 0.00 0.00 0.00 0.00 0.01 0.01 0.02 0.03 0.05 0.09 0.07 0.05 0.07 0.07 0.06 0.06 0.06 0.06 0.06 0.07 0.07 0.07 0.07 0.07
0.03 0.02 0.02 0.01 0.02 0.02 0.02 0.03 0.02 0.02 0.02 0.01 0.01 0.01 0.01 0.01 0.01 0.02 0.02 0.01 0.00 0.00 0.00 0.00 0.01 0.02 0.03 0.04 0.05 0.07 0.08 0.05 0.05 0.05 0.05 0.06 0.07 0.06 0.06 0.06 0.07 0.08 0.08 0.07
0.03 0.01 0.01 0.01 0.01 0.02 0.02 0.02 0.02 0.02 0.02 0.02 0.02 0.02 0.02 0.02 0.02 0.01 0.01 0.01 0.01 0.01 0.01 0.02 0.03 0.03 0.03 0.03 0.03 0.04 0.04 0.04 0.04 0.04 0.04 0.06 0.07 0.06 0.06 0.06 0.08 0.09 0.08 0.07
0.03 0.02 0.02 0.02 0.02 0.02 0.02 0.02 0.01 0.01 0.01 0.01 0.01 0.01 0.02 0.02 0.01 0.02 0.02 0.03 0.03 0.03 0.04 0.05 0.05 0.04 0.02 0.02 0.02 0.03 0.03 0.03 0.03 0.04 0.04 0.05 0.06 0.06 0.06 0.05 0.06 0.08 0.07 0.06
0.04 0.04 0.03 0.02 0.02 0.02 0.03 0.03 0.03 0.03 0.02 0.03 0.03 0.03 0.03 0.03 0.03 0.04 0.04 0.05 0.05 0.06 0.06 0.06 0.05 0.04 0.03 0.03 0.03 0.03 0.04 0.04 0.04 0.03 0.04 0.05 0.05 0.05 0.05 0.05 0.04 0.04 0.04 0.03
0.05 0.05 0.04 0.03 0.03 0.04 0.04 0.06 0.07 0.06 0.05 0.05 0.06 0.07 0.06 0.05 0.05 0.05 0.05 0.05 0.06 0.06 0.06 0.06 0.06 0.05 0.04 0.03 0.03 0.03 0.03 0.03 0.03 0.03 0.03 0.04 0.04 0.04 0.04 0.04 0.04 0.04 0.04 0.04
MSLP
1016.34 1015.80 1015.29 1014.82 1014.40 1014.00 1013.60 1013.17 1012.70 1012.19 1011.65 1011.11 1010.61 1010.18 1009.86 1009.64 1009.51 1009.44 1009.38 1009.28 1009.10 1008.81 1008.40 1007.90 1007.35 1006.79 1006.28 1005.88 1005.61 1005.50 1005.54 1005.72 1006.00 1006.36 1006.77 1007.21 1007.67 1008.14 1008.63 1009.15 1009.70 1010.28 1010.88 1011.50
1016.86 1016.26 1015.64 1015.03 1014.43 1013.85 1013.27 1012.70 1012.13 1011.57 1011.03 1010.54 1010.13 1009.82 1009.63 1009.54 1009.54 1009.58 1009.61 1009.58 1009.44 1009.17 1008.77 1008.24 1007.63 1006.98 1006.37 1005.83 1005.42 1005.15 1005.05 1005.10 1005.29 1005.59 1005.99 1006.44 1006.95 1007.49 1008.06 1008.65 1009.26 1009.89 1010.52 1011.15
1017.19 1016.53 1015.82 1015.08 1014.34 1013.61 1012.90 1012.23 1011.59 1010.99 1010.47 1010.02 1009.69 1009.47 1009.37 1009.38 1009.46 1009.57 1009.67 1009.69 1009.59 1009.35 1008.96 1008.43 1007.80 1007.10 1006.41 1005.76 1005.22 1004.81 1004.56 1004.48 1004.56 1004.78 1005.13 1005.58 1006.11 1006.70 1007.34 1008.00 1008.68 1009.35 1010.02 1010.67
1017.29 1016.58 1015.79 1014.97 1014.13 1013.32 1012.54 1011.81 1011.15 1010.56 1010.06 1009.66 1009.38 1009.23 1009.18 1009.23 1009.34 1009.48 1009.60 1009.65 1009.58 1009.37 1009.00 1008.49 1007.86 1007.15 1006.40 1005.68 1005.02 1004.49 1004.10 1003.88 1003.83 1003.95 1004.22 1004.64 1005.17 1005.79 1006.47 1007.19 1007.93 1008.65 1009.36 1010.04
1017.16 1016.40 1015.56 1014.69 1013.82 1012.98 1012.20 1011.48 1010.85 1010.31 1009.86 1009.51 1009.27 1009.14 1009.10 1009.15 1009.25 1009.36 1009.46 1009.50 1009.44 1009.24 1008.91 1008.43 1007.83 1007.12 1006.36 1005.59 1004.86 1004.22 1003.70 1003.34 1003.15 1003.15 1003.34 1003.69 1004.19 1004.81 1005.51 1006.26 1007.04 1007.81 1008.56 1009.28
1016.78 1015.98 1015.13 1014.25 1013.40 1012.61 1011.88 1011.24 1010.68 1010.22 1009.84 1009.54 1009.33 1009.20 1009.14 1009.13 1009.17 1009.23 1009.27 1009.27 1009.20 1009.02 1008.71 1008.28 1007.72 1007.06 1006.31 1005.52 1004.75 1004.02 1003.40 1002.91 1002.60 1002.47 1002.54 1002.81 1003.25 1003.83 1004.52 1005.29 1006.09 1006.90 1007.69 1008.44
1016.19 1015.37 1014.52 1013.69 1012.90 1012.19 1011.57 1011.04 1010.60 1010.23 1009.93 1009.69 1009.49 1009.33 1009.22 1009.14 1009.09 1009.06 1009.03 1008.97 1008.87 1008.70 1008.43 1008.05 1007.55 1006.95 1006.24 1005.48 1004.68 1003.91 1003.21 1002.62 1002.18 1001.94 1001.90 1002.06 1002.42 1002.95 1003.61 1004.36 1005.17 1006.00 1006.82 1007.62
1015.43 1014.60 1013.79 1013.02 1012.34 1011.75 1011.26 1010.86 1010.54 1010.28 1010.04 1009.83 1009.63 1009.44 1009.26 1009.09 1008.93 1008.80 1008.69 1008.58 1008.45 1008.28 1008.06 1007.74 1007.32 1006.79 1006.15 1005.43 1004.65 1003.86 1003.11 1002.45 1001.92 1001.57 1001.43 1001.50 1001.77 1002.23 1002.85 1003.58 1004.38 1005.22 1006.06 1006.88
1014.57 1013.76 1013.00 1012.32 1011.75 1011.29 1010.93 1010.66 1010.45 1010.26 1010.08 1009.89 1009.66 1009.42 1009.15 1008.89 1008.64 1008.42 1008.23 1008.07 1007.92 1007.77 1007.58 1007.34 1007.00 1006.55 1005.99 1005.33 1004.59 1003.82 1003.05 1002.35 1001.77 1001.35 1001.12 1001.11 1001.32 1001.72 1002.29 1003.00 1003.79 1004.63 1005.48 1006.32
1013.69 1012.91 1012.22 1011.64 1011.18 1010.84 1010.59 1010.41 1010.27 1010.13 1009.97 1009.76 1009.49 1009.18 1008.84 1008.49 1008.16 1007.86 1007.62 1007.43 1007.28 1007.15 1007.01 1006.83 1006.57 1006.20 1005.73 1005.14 1004.45 1003.71 1002.96 1002.26 1001.65 1001.20 1000.93 1000.88 1001.04 1001.40 1001.95 1002.63 1003.41 1004.24 1005.10 1005.94
1012.85 1012.14 1011.53 1011.04 1010.67 1010.42 1010.24 1010.11 1009.99 1009.85 1009.65 1009.40 1009.07 1008.69 1008.28 1007.87 1007.47 1007.14 1006.86 1006.66 1006.53 1006.43 1006.34 1006.21 1006.02 1005.72 1005.32 1004.79 1004.17 1003.48 1002.77 1002.09 1001.50 1001.05 1000.78 1000.72 1000.88 1001.24 1001.77 1002.45 1003.23 1004.06 1004.92 1005.75
1012.12 1011.47 1010.95 1010.54 1010.24 1010.03 1009.87 1009.74 1009.59 1009.39 1009.13 1008.80 1008.40 1007.96 1007.49 1007.03 1006.61 1006.25 1005.98 1005.80 1005.69 1005.62 1005.57 1005.48 1005.34 1005.09 1004.74 1004.27 1003.70 1003.06 1002.40 1001.78 1001.24 1000.84 1000.61 1000.59 1000.77 1001.16 1001.71 1002.41 1003.20 1004.04 1004.88 1005.71
1011.50 1010.93 1010.48 1010.13 1009.86 1009.66 1009.48 1009.29 1009.06 1008.78 1008.42 1008.00 1007.52 1007.01 1006.50 1006.02 1005.60 1005.26 1005.02 1004.86 1004.78 1004.75 1004.72 1004.67 1004.54 1004.33 1004.00 1003.57 1003.04 1002.46 1001.86 1001.31 1000.85 1000.52 1000.37 1000.42 1000.67 1001.11 1001.71 1002.43 1003.24 1004.09 1004.93 1005.73
1010.97 1010.47 1010.08 1009.77 1009.51 1009.27 1009.03 1008.75 1008.41 1008.01 1007.54 1007.02 1006.46 1005.90 1005.37 1004.89 1004.50 1004.20 1003.99 1003.88 1003.84 1003.83 1003.83 1003.78 1003.66 1003.45 1003.13 1002.72 1002.23 1001.70 1001.17 1000.70 1000.33 1000.11 1000.06 1000.20 1000.54 1001.05 1001.70 1002.47 1003.30 1004.15 1004.97 1005.74
1010.46 1010.03 1009.68 1009.38 1009.11 1008.82 1008.49 1008.09 1007.64 1007.11 1006.53 1005.91 1005.29 1004.70 1004.16 1003.70 1003.34 1003.10 1002.95 1002.88 1002.88 1002.89 1002.89 1002.83 1002.70 1002.48 1002.17 1001.77 1001.32 1000.84 1000.40 1000.02 999.76 999.64 999.71 999.95 1000.38 1000.97 1001.68 1002.48 1003.32 1004.16 1004.96 1005.69
1009.91 1009.53 1009.21 1008.91 1008.60 1008.24 1007.81 1007.31 1006.74 1006.10 1005.41 1004.72 1004.05 1003.44 1002.91 1002.49 1002.18 1001.99 1001.89 1001.87 1001.89 1001.92 1001.92 1001.85 1001.71 1001.48 1001.17 1000.79 1000.38 999.97 999.61 999.34 999.19 999.19 999.37 999.72 1000.23 1000.88 1001.63 1002.45 1003.28 1004.10 1004.86 1005.54
1009.27 1008.92 1008.61 1008.30 1007.94 1007.52 1007.01 1006.41 1005.73 1005.00 1004.24 1003.50 1002.80 1002.18 1001.68 1001.29 1001.03 1000.89 1000.84 1000.86 1000.90 1000.93 1000.93 1000.86 1000.71 1000.49 1000.19 999.85 999.49 999.17 998.90 998.74 998.70 998.82 999.10 999.54 1000.11 1000.80 1001.57 1002.38 1003.19 1003.97 1004.68 1005.29
1008.50 1008.17 1007.86 1007.53 1007.14 1006.66 1006.08 1005.41 1004.67 1003.88 1003.07 1002.30 1001.60 1000.99 1000.51 1000.16 999.94 999.84 999.82 999.86 999.92 999.96 999.95 999.89 999.75 999.54 999.29 999.00 998.73 998.49 998.34 998.29 998.37 998.59 998.96 999.46 1000.08 1000.78 1001.54 1002.32 1003.08 1003.79 1004.43 1004.98
1007.64 1007.32 1007.00 1006.66 1006.24 1005.72 1005.11 1004.40 1003.62 1002.80 1001.98 1001.20 1000.51 999.93 999.47 999.15 998.96 998.88 998.87 998.92 998.98 999.03 999.03 998.98 998.87 998.70 998.51 998.31 998.13 998.01 997.97 998.04 998.23 998.54 998.98 999.52 1000.16 1000.85 1001.57 1002.29 1002.98 1003.62 1004.19 1004.68
1006.75 1006.44 1006.12 1005.76 1005.33 1004.80 1004.17 1003.45 1002.66 1001.85 1001.04 1000.29 999.61 999.06 998.62 998.32 998.14 998.06 998.06 998.10 998.16 998.21 998.22 998.19 998.13 998.03 997.92 997.81 997.75 997.74 997.83 998.00 998.29 998.68 999.17 999.74 1000.36 1001.03 1001.69 1002.35 1002.96 1003.52 1004.02 1004.46
1005.95 1005.64 1005.32 1004.95 1004.52 1003.99 1003.36 1002.65 1001.89 1001.10 1000.33 999.61 998.97 998.43 998.02 997.72 997.54 997.46 997.44 997.47 997.52 997.57 997.60 997.60 997.59 997.56 997.54 997.55 997.60 997.71 997.90 998.18 998.55 999.00 999.52 1000.10 1000.71 1001.33 1001.94 1002.53 1003.07 1003.57 1004.02 1004.41
1005.33 1005.02 1004.70 1004.33 1003.90 1003.37 1002.77 1002.09 1001.36 1000.62 999.89 999.20 998.60 998.09 997.70 997.41 997.22 997.12 997.09 997.10 997.14 997.18 997.23 997.27 997.31 997.36 997.43 997.53 997.69 997.91 998.20 998.56 998.99 999.48 1000.02 1000.60 1001.19 1001.77 1002.34 1002.87 1003.37 1003.82 1004.23 1004.61
1004.96 1004.65 1004.32 1003.95 1003.52 1003.01 1002.42 1001.78 1001.09 1000.40 999.72 999.09 998.52 998.05 997.67 997.39 997.19 997.08 997.03 997.03 997.06 997.11 997.17 997.25 997.34 997.45 997.60 997.79 998.03 998.33 998.69 999.12 999.59 1000.11 1000.66 1001.23 1001.80 1002.36 1002.90 1003.40 1003.88 1004.32 1004.72 1005.10
1004.86 1004.55 1004.21 1003.83 1003.39 1002.89 1002.32 1001.71 1001.07 1000.43 999.81 999.23 998.71 998.27 997.92 997.65 997.46 997.34 997.29 997.27 997.30 997.36 997.44 997.55 997.69 997.86 998.06 998.32 998.62 998.98 999.39 999.85 1000.35 1000.88 1001.43 1001.99 1002.56 1003.11 1003.64 1004.14 1004.61 1005.06 1005.49 1005.89
1005.01 1004.68 1004.33 1003.93 1003.48 1002.97 1002.43 1001.85 1001.25 1000.66 1000.10 999.58 999.12 998.72 998.41 998.16 997.99 997.88 997.83 997.83 997.87 997.94 998.05 998.18 998.35 998.56 998.81 999.11 999.45 999.84 1000.27 1000.74 1001.25 1001.78 1002.34 1002.90 1003.46 1004.01 1004.55 1005.07 1005.57 1006.05 1006.50 1006.94
1005.31 1004.97 1004.59 1004.17 1003.71 1003.20 1002.67 1002.12 1001.57 1001.04 1000.54 1000.08 999.68 999.35 999.08 998.88 998.74 998.66 998.63 998.65 998.71 998.81 998.94 999.11 999.31 999.55 999.83 1000.15 1000.50 1000.90 1001.34 1001.81 1002.31 1002.84 1003.38 1003.94 1004.51 1005.07 1005.63 1006.17 1006.71 1007.22 1007.71 1008.18
1005.66 1005.30 1004.90 1004.47 1004.00 1003.50 1003.00 1002.48 1001.99 1001.51 1001.08 1000.70 1000.37 1000.10 999.90 999.76 999.67 999.63 999.64 999.70 999.79 999.92 1000.09 1000.28 1000.51 1000.78 1001.07 1001.40 1001.77 1002.16 1002.59 1003.05 1003.54 1004.05 1004.58 1005.13 1005.70 1006.27 1006.84 1007.41 1007.97 1008.51 1009.02 1009.50
Thickness
5788 5794 5794 5790 5791 5793 5794 5798 5795 5800 5803 5806 5810 5811 5811 5812 5812 5810 5809 5809 5808 5807 5806 5803 5801 5798 5796 5794 5792 5789 5785 5781 5777 5775 5772 5769 5767 5764 5762 5759 5758 5755 5753 5751
5772 5782 5783 5780 5786 5788 5789 5793 5796 5798 5798 5811 5811 5809 5805 5805 5805 5803 5803 5803 5804 5804 5802 5799 5797 5795 5793 5791 5788 5785 5780 5777 5775 5772 5768 5766 5764 5761 5758 5756 5754 5752 5750 5749
5762 5773 5769 5765 5782 5783 5785 5791 5792 5787 5794 5801 5797 5797 5797 5797 5798 5797 5798 5799 5799 5799 5799 5797 5795 5793 5790 5788 5785 5781 5776 5773 5770 5767 5764 5761 5760 5757 5754 5752 5750 5748 5747 5745
5756 5751 5739 5773 5788 5787 5781 5782 5789 5788 5790 5791 5791 5794 5796 5795 5792 5791 5792 5793 5794 5795 5796 5796 5794 5791 5788 5786 5781 5776 5772 5769 5766 5763 5760 5757 5755 5752 5750 5748 5746 5745 5744 5743
5746 5743 5752 5763 5773 5776 5771 5768 5780 5779 5780 5784 5788 5789 5787 5789 5787 5785 5786 5787 5788 5790 5792 5791 5789 5787 5783 5780 5776 5772 5769 5765 5763 5760 5756 5753 5750 5747 5745 5743 5742 5741 5740 5739
5735 5732 5734 5755 5770 5775 5767 5755 5771 5772 5770 5772 5773 5769 5774 5780 5779 5779 5780 5781 5781 5783 5783 5782 5781 5781 5776 5773 5770 5767 5765 5763 5760 5757 5753 5749 5747 5744 5742 5740 5738 5738 5737 5736
5726 5726 5741 5753 5762 5762 5740 5745 5761 5764 5763 5763 5761 5762 5767 5770 5769 5769 5770 5772 5773 5773 5772 5772 5772 5771 5768 5766 5764 5764 5762 5759 5756 5753 5749 5746 5743 5741 5738 5736 5735 5733 5732 5732
5719 5716 5725 5745 5749 5742 5741 5748 5753 5754 5755 5754 5755 5757 5758 5758 5758 5758 5759 5761 5763 5762 5762 5763 5763 5761 5758 5757 5758 5758 5756 5753 5750 5747 5746 5743 5738 5736 5734 5731 5729 5728 5727 5727
5720 5721 5726 5734 5734 5737 5740 5738 5741 5744 5746 5746 5744 5744 5746 5747 5748 5749 5750 5751 5753 5753 5752 5753 5753 5752 5749 5750 5750 5749 5747 5745 5743 5741 5739 5737 5734 5731 5728 5726 5726 5726 5725 5724
5706 5713 5718 5722 5725 5727 5728 5729 5732 5735 5736 5736 5734 5735 5736 5736 5737 5738 5740 5741 5743 5743 5742 5742 5743 5743 5741 5742 5742 5740 5738 5737 5736 5735 5733 5731 5729 5729 5727 5725 5724 5722 5721 5720
5694 5700 5705 5708 5711 5714 5717 5720 5722 5725 5726 5725 5725 5724 5725 5726 5727 5728 5729 5730 5731 5731 5730 5731 5732 5732 5732 5733 5732 5731 5730 5729 5729 5729 5728 5725 5724 5723 5723 5722 5721 5717 5717 5716
5688 5694 5694 5695 5700 5703 5704 5707 5710 5711 5713 5715 5716 5715 5716 5716 5717 5717 5718 5719 5719 5720 5720 5720 5721 5721 5722 5722 5722 5721 5720 5721 5722 5721 5720 5720 5718 5717 5714 5714 5711 5708 5706 5705
5682 5687 5688 5689 5691 5693 5694 5697 5700 5701 5702 5703 5706 5707 5707 5706 5706 5707 5708 5708 5708 5710 5711 5711 5711 5711 5713 5713 5713 5712 5711 5712 5713 5712 5712 5712 5712 5711 5709 5706 5702 5701 5699 5697
5674 5675 5674 5677 5679 5682 5684 5687 5690 5691 5693 5694 5696 5697 5696 5696 5696 5697 5698 5699 5700 5700 5700 5701 5702 5702 5704 5705 5704 5704 5705 5705 5704 5703 5703 5704 5704 5703 5703 5702 5700 5699 5694 5690
5664 5666 5667 5669 5671 5673 5674 5676 5677 5680 5682 5683 5684 5684 5685 5684 5685 5686 5687 5689 5689 5689 5690 5691 5691 5692 5694 5696 5696 5696 5698 5698 5698 5698 5697 5697 5696 5696 5696 5695 5695 5693 5692 5688
5655 5658 5659 5659 5660 5662 5665 5667 5668 5669 5671 5672 5673 5673 5674 5675 5675 5676 5677 5677 5677 5678 5679 5680 5680 5682 5684 5686 5686 5688 5689 5688 5687 5689 5690 5690 5690 5690 5689 5689 5688 5687 5686 5684
5645 5646 5647 5649 5651 5654 5656 5658 5660 5661 5662 5662 5663 5664 5664 5664 5665 5665 5666 5668 5669 5669 5670 5670 5671 5673 5674 5676 5678 5680 5682 5682 5679 5681 5683 5684 5684 5683 5682 5682 5681 5680 5679 5677
5639 5640 5640 5641 5643 5646 5648 5650 5653 5653 5653 5654 5654 5654 5654 5654 5655 5657 5658 5659 5660 5661 5662 5663 5664 5664 5665 5667 5669 5672 5674 5675 5675 5675 5676 5675 5676 5676 5675 5675 5674 5672 5671 5669
5632 5633 5634 5636 5638 5640 5641 5643 5644 5645 5645 5645 5646 5646 5647 5648 5648 5649 5650 5650 5651 5652 5654 5656 5653 5654 5657 5659 5660 5662 5664 5666 5667 5668 5668 5665 5665 5667 5667 5666 5666 5665 5663 5661
5627 5628 5629 5630 5632 5633 5634 5636 5637 5637 5638 5639 5639 5639 5639 5640 5641 5641 5642 5643 5646 5648 5648 5646 5646 5648 5650 5651 5650 5653 5656 5657 5659 5659 5659 5659 5659 5659 5659 5658 5657 5656 5655 5654
5621 5622 5623 5625 5626 5627 5628 5630 5630 5631 5632 5633 5632 5632 5633 5634 5635 5635 5636 5638 5640 5639 5639 5638 5640 5642 5643 5642 5640 5644 5647 5648 5649 5650 5651 5650 5650 5650 5649 5649 5648 5647 5646 5645
5616 5617 5618 5619 5620 5621 5623 5624 5625 5625 5626 5626 5627 5627 5627 5627 5629 5629 5630 5631 5633 5630 5632 5635 5636 5634 5633 5630 5634 5637 5638 5639 5640 5640 5641 5640 5640 5640 5639 5639 5638 5637 5637 5636
5612 5613 5614 5615 5616 5617 5618 5619 5620 5620 5620 5620 5620 5621 5622 5623 5625 5625 5625 5627 5628 5625 5626 5629 5627 5622 5620 5623 5627 5629 5630 5630 5631 5631 5631 5631 5631 5630 5630 5629 5629 5628 5627 5625
5608 5609 5610 5612 5612 5613 5613 5615 5616 5616 5616 5616 5617 5618 5618 5619 5621 5623 5623 5621 5619 5618 5621 5620 5617 5615 5612 5618 5620 5621 5622 5621 5622 5623 5624 5624 5623 5622 5621 5620 5620 5618 5618 5616
5607 5608 5609 5609 5610 5611 5612 5614 5614 5613 5614 5615 5616 5617 5618 5618 5618 5619 5618 5618 5615 5613 5616 5615 5612 5609 5611 5614 5614 5613 5613 5614 5614 5615 5615 5614 5614 5613 5612 5611 5610 5609 5607 5607
5606 5608 5609 5609 5611 5611 5613 5613 5613 5613 5613 5613 5614 5615 5616 5616 5615 5615 5614 5614 5613 5610 5611 5611 5610 5607 5608 5608 5607 5606 5605 5606 5606 5605 5605 5604 5604 5603 5602 5601 5600 5599 5598 5597
5605 5607 5608 5610 5611 5612 5612 5612 5612 5611 5612 5611 5611 5612 5612 5612 5612 5611 5610 5609 5608 5608 5607 5606 5605 5604 5603 5601 5600 5599 5599 5598 5597 5596 5595 5594 5593 5593 5592 5591 5590 5589 5588 5587